Regional Weather Roundup
Issued by NWS

Home | Current Version | Previous Version | Text Only | Print | Product List | Glossary On
Versions: 1 2 3 4 5 6 7 8 9 10 11 12 13 14 15 16 17 18 19 20 21 22 23 24 25 26 27 28 29 30 31 32 33 34 35 36 37 38 39 40 41 42 43 44 45 46 47 48 49 50
000
ASCA44 KEWX 212120
RWRMX

LATIN AMERICA AND CARIBBEAN REGIONAL WEATHER ROUNDUP
NATIONAL WEATHER SERVICE AUSTIN/SAN ANTONIO TX
400 PM CDT THU SEP 21 2017

NOTE: "FAIR" INDICATED FEW OR NO CLOUDS BELOW 12,000 FEET WITH NO
SIGNIFICANT WEATHER AND/OR OBSTRUCTIONS TO VISIBILITY.

BAJA CALIFORNIA

CITY           SKY/WX    TMP DP  RH WIND       PRES   REMARKS
LORETO         SUNNY     93  73  52 E8        29.74F HX 102
LA PAZ         SUNNY     95  57  28 NW3       29.79F HX  94
MEXICALI       SUNNY     93  36  13 W12       29.69F
S.J. DEL CABO  SUNNY     91  70  49 SE14      29.79F HX  97
TIJUANA        LGT RAIN  66  61  82 W10       29.90F

NORTHWESTERN MEXICO

CITY           SKY/WX    TMP DP  RH WIND       PRES   REMARKS
CULIACAN       PTSUNNY   95  75  52 CALM      29.74F HX 107
DURANGO        PTSUNNY   75  57  53 N5        30.13F
GUAYMAS        SUNNY     93  75  55 S12       29.71F HX 104
HERMOSILLO     SUNNY     99  64  32 SW7       29.78F HX 101
CD. JUAREZ     MOSUNNY   90  48  24 SW8G20    29.95F
LOS MOCHIS     MOSUNNY   93  72  49 W14       29.76F HX 100
OBREGON        SUNNY    100  61  27 W8        29.71F HX 101

NORTHEASTERN MEXICO

CITY           SKY/WX    TMP DP  RH WIND       PRES   REMARKS
CHIHUAHUA      MOSUNNY   90  57  33 E10       29.99F
MATAMOROS      PTSUNNY   93  73  52 S13       29.84F HX 102
MONCLOVA       MOSUNNY   90  68  48 E7        29.86F HX  93
MONTERREY      MOSUNNY   91  66  43 E8        29.83F HX  94
NUEVO LAREDO   PTSUNNY   95  70  43 S9        29.81F HX 101
PIEDRAS NEGRAS MOSUNNY   93  72  49 SE9       29.83F HX 100
REYNOSA        MOSUNNY   93  66  40 E12G23    29.80F HX  96
SALTILLO       MOSUNNY   82  64  54 N17       30.08F
TORREON        MOSUNNY   90  59  35 NE7       29.95F
CD. VICTORIA   MOSUNNY   97  61  30 MISG      29.81F HX  97

WESTERN MEXICO

CITY           SKY/WX    TMP DP  RH WIND       PRES   REMARKS
AGUASCALIENTES PTSUNNY   79  50  36 NW6       30.13F
COLIMA         CLOUDY    79  73  83 CALM      29.91F FOG
DEL BAJIO      PTSUNNY   81  57  44 CALM      30.15F
GUADALAJARA    PTSUNNY   77  61  57 NW3       30.06F
MANZANILLO     CLOUDY    86  79  79 S12       29.76F HX  99
MAZATLAN       MOSUNNY   91  77  62 W10       29.74F HX 105
P. VALLARTA    CLOUDY    88  82  84 W7        29.74F HX 108
URUAPAN        PTSUNNY   72  64  78 CALM      30.06F
ZACATECAS      MOSUNNY   77  52  41 CALM      30.17F

CENTRAL MEXICO

CITY           SKY/WX    TMP DP  RH WIND       PRES   REMARKS
CUERNAVACA     PTSUNNY   81  66  61 S5        30.01S
MEXICO CITY    PTSUNNY   75  52  43 N8        30.17F
MORELIA        PTSUNNY   77  59  53 N3        30.09F
POZA RICA      PTSUNNY   91  77  62 E12       29.86F HX 105
PUEBLA         PTSUNNY   75  55  50 S7        30.18F
QUERETARO      PTSUNNY   79  55  44 NE8       30.15
S. LUIS POTOSI PTSUNNY   77  50  38 SE12      30.13F
TAMPICO          N/A    N/A N/A N/A MISG        N/A
TOLUCA         PTSUNNY   70  52  52 NW3       30.25F

SOUTHERN MEXICO

CITY           SKY/WX    TMP DP  RH WIND       PRES   REMARKS
ACAPULCO       PTSUNNY   84  77  79 S6        29.76F HX  94
B. DE HUATULCO   N/A    N/A N/A N/A MISG        N/A
OAXACA         PTSUNNY   79  59  50 S8        30.06F
P. ESCONDIDO   PTSUNNY   84  77  79 SE13      29.87F HX  94
VERACRUZ       MOSUNNY   90  79  70 E7        29.79F HX 105
ZIHUATANEJO    PTSUNNY   84  75  74 SW6       29.78F HX  92

YUCATAN PENINSULA

CITY           SKY/WX    TMP DP  RH WIND       PRES   REMARKS
CAMPECHE       MOSUNNY   93  75  55 E12       29.78F HX 104
CANCUN         PTSUNNY   82  75  78 CALM      29.87F
CHETUMAL       MOSUNNY   90  77  66 SE12      29.81F HX 102
CD. DEL CARMEN PTSUNNY  N/A N/A N/A CALM      29.80F
COZUMEL        PTSUNNY   84  77  79 NE5       29.85S HX  94
MERIDA         PTSUNNY   91  72  52 N5        29.82F HX  98
MINATITLAN     MOSUNNY   86  81  84 N12       29.77F HX 102
TAPACHULA      MOSUNNY   88  79  74 S12       29.76F HX 102
TUX. GUTIERREZ PTSUNNY   88  72  58 SE3       29.83F HX  94
VILLAHERMOSA   PTSUNNY   86  75  70 NE7       29.82F HX  95

CENTRAL AMERICA

CITY           SKY/WX    TMP DP  RH WIND       PRES   REMARKS
BELIZE CITY    MOSUNNY   90  79  70 E9        29.81R HX 105
MANAGUA        PTCLDY    88  73  62 S7        29.74S HX  96

CARIBBEAN

CITY           SKY/WX    TMP DP  RH WIND       PRES   REMARKS
ARUBA          MOSUNNY   91  79  66 VRB5      29.71S HX 107
CURACAO        MOSUNNY   90  77  66 E10       29.74S HX 102
KINGSTON       MOSUNNY   90  75  62 SW10      29.74S HX 100
NASSAU         PTSUNNY   82  75  78 N5        29.89S
SAN JUAN       CLOUDY    86  81  84 SE10G21     N/A  HX 102
SANTO DOMINGO  TSTM      81  77  89 SW22G35   29.62R
ST. KITTS      MOSUNNY   84  79  84 E9        29.86S HX  96
ST. MAARTEN    MOSUNNY  N/A N/A N/A SE14      29.89F

$$





USA.gov is the U.S. government's official web portal to all federal, state and local government web resources and services.